sat.trackr.live / text

‹ back to catalog

2025-055C

NORAD 63293 · 2025-055C

PAYLOAD ACTIVE UNKNOWN

§ Identity

Operator
Country
PRC
Launch date
2025-03-17
Launch site
JSC
Launch vehicle
Mass (kg)
RCS (m²)

External: N2YO · Heavens-Above · Gunter

§ Orbital elements

Epoch: 2026-05-25T03:43:26.402016Z

Period
95.37 min
Inclination
97.6481°
Eccentricity
0.0042384
Mean motion
15.09842862 rev/d
Perigee alt
507.4 km
Apogee alt
566.0 km
Semi-major
6,914.8 km
B*
3.4623e-4
RAAN
285.9036°
Arg perigee
217.5607°
Mean anomaly
142.2660°
Rev number
6,559

§ Raw data

2025-055C1 63293U 25055C   26145.15516669  .00005653  00000+0  34623-3 0  99962 63293  97.6481 285.9036 0042384 217.5607 142.2660 15.09842862 65593

JSON: /api/v1/satellites/63293 · /tle

For live sub-satellite position, see the globe view (requires WebGL).

§ Visibility from observer

Set your observer location to see the next 7 days of passes ≥ 10°. The values pass through the URL so the page stays shareable.

No JS? Fill the form by hand. The geolocation button needs JavaScript.